Regional Weather Roundup
Issued by NWS

Home | Current Version | Previous Version | Graphics & Text | Print | Product List | Glossary On
Versions: 1 2 3 4 5 6 7 8 9 10 11 12 13 14 15 16 17 18 19 20 21 22 23 24 25 26 27
000
ASUS45 KBOU 211710
RWRCO

WEATHER ROUNDUP FOR COLORADO
NATIONAL WEATHER SERVICE DENVER/BOULDER CO
1000 AM MST TUE NOV 21 2017

NOTE: "FAIR" INDICATES FEW OR NO CLOUDS BELOW 12000 FEET WITH NO
SIGNIFICANT WEATHER AND/OR OBSTRUCTIONS TO VISIBILITY.

COZ001>005-013-030-031-211800-
...NORTHWEST COLORADO...

CITY           SKY/WX    TMP DP  RH WIND       PRES   REMARKS
CRAIG          CLOUDY    39  32  76 CALM      30.34R
HAYDEN         CLOUDY    37  33  85 CALM      30.35R
MEEKER         LGT RAIN  40  35  83 CALM      30.36R
RABBIT EARS PA HVY SNOW  27  27 100 W10G24    30.34R VSB<1/4 WCI  17
STEAMBOAT SPGS CLOUDY    33  32  97 CALM      30.33R
WALDEN         CLOUDY    34  30  86 E3        30.31R
$$

COZ006>008-011-211800-
...WEST CENTRAL VALLEYS...

CITY           SKY/WX    TMP DP  RH WIND       PRES   REMARKS
GRAND JUNCTION FAIR      42  26  53 W7        30.38R
MONTROSE       CLOUDY    40  20  44 W6        30.39R
EAGLE          PTSUNNY   41  30  65 CALM      30.37R
RIFLE          CLOUDY    40  29  64 SE5       30.39R
DELTA          FAIR      44  20  37 NE5       30.38S
NUCLA          FAIR      39  10  30 CALM      30.40S
$$

COZ017>023-064>068-211800-
...SOUTHWEST COLORADO...

CITY           SKY/WX    TMP DP  RH WIND       PRES   REMARKS
DURANGO        FAIR      37  15  40 E6        30.30R
CORTEZ         FAIR      50  17  27 W3        30.31S
PAGOSA SPRINGS FAIR      39  18  41 NE5       30.32R
TELLURIDE      FAIR      42  28  58 CALM      30.43R
WOLF CREEK PAS FAIR      32  16  51 NW8G17    30.46R WCI  25
$$

COZ009-010-012-014-032>034-037-058>063-211800-
...CENTRAL COLORADO...

CITY           SKY/WX    TMP DP  RH WIND       PRES   REMARKS
ASPEN          PTSUNNY   33  28  81 CALM      30.37R
BUENA VISTA    FAIR      46  28  48 NW6       30.30R
COPPER MTN     LGT SNOW  28  23  80 MISG      30.40R
BERTHOUD PASS  CLOUDY    19   9  63 NW21G32   30.34R WCI   3
COTTONWOOD PAS FAIR      43  28  56 W16G25    30.33R
GUNNISON       FAIR      36  26  67 CALM      30.38S
KREMMLING      CLOUDY    43  36  75 NW3       30.33R
LEADVILLE      LGT SNOW  31  25  78 NW8       30.36R WCI  23
MONARCH PASS   CLOUDY    25  23  93 W25       30.50R WCI   9
SALIDA         FAIR      48  27  43 N5        30.36S
SUNLIGHT       LGT SNOW  28  27  93 W7        30.45R WCI  21
WILKERSON PASS FAIR      30  23  74 N10G25    30.39R WCI  21
$$

COZ069>075-211800-
...SAN LUIS VALLEY/SANGRE DE CRISTO MOUNTAINS...

CITY           SKY/WX    TMP DP  RH WIND       PRES   REMARKS
ALAMOSA        FAIR      49  25  39 N12G20    30.30R
DEL NORTE      NOT AVBL
LA VETA PASS   FAIR      39  21  48 N20G29      N/A
SAGUACHE       FAIR      46  28  49 N22       30.32S
$$

COZ035-036-038>040-211800-
...NORTHERN COLORADO FRONT RANGE...

CITY           SKY/WX    TMP DP  RH WIND       PRES   REMARKS
DENVER INTL AP CLOUDY    36  30  79 E10       30.31R
DMNS CITY PARK   N/A     38  30  71 NE3G13    30.33R
AURORA         PTSUNNY   36  30  79 E10       30.31R
FRONT RANGE AP PTSUNNY   37  34  87 E10       30.31R
ERIE MUNI ARPT LGT RAIN  40  32  74 SE6       30.39R
BOULDER MUN AP RAIN      37  32  81 E5        30.33R
CENTENNIAL     CLOUDY    37  32  82 E6        30.31R
BROOMFIELD     FLURRIES  39  32  75 E3        30.33
FORT COLLINS   CLOUDY    40  33  76 SE7       30.32R
LONGMONT       DRIZZLE   42  33  70 E6        30.35R
$$

COZ041-046-047-076>085-087-088-211800-
...PIKES PEAK/PALMER DIVIDE AND SOUTHERN FOOTHILLS...

CITY           SKY/WX    TMP DP  RH WIND       PRES   REMARKS
COLO. SPRINGS  PTSUNNY   47  35  63 N20       30.30R
A. F. ACADEMY  LGT RAIN  39  37  93 NW10      30.31R FOG
SCHRIEVER AFB  LGT RAIN  43  35  72 NE18G25   30.29R
CHEYENNE MTN   LGT RAIN  39  36  87 NW16G23   30.24R
ELLICOTT         N/A    N/A N/A N/A NE22G30   30.28R
FALCON         LGT RAIN  38  36  92 N10G18    30.32R
FORT CARSON    PTSUNNY   48  36  61 N17G23    30.24S
LIMON          CLOUDY    38  28  67 N7        30.30R
MONUMENT HILL  CLOUDY    32  32 100 NE7       30.32R WCI  26
CANON CITY     MOSUNNY   52  36  54 E18       30.25R
WALSENBURG     CLOUDY    50  30  46 NE8       30.31R
TRINIDAD       PTSUNNY   52  26  36 E13       30.29R
$$

COZ042>045-048>051-090-091-211800-
...NORTHEAST COLORADO...

CITY           SKY/WX    TMP DP  RH WIND       PRES   REMARKS
GREELEY ARPT   FAIR      42  29  59 NE8       30.33R
AKRON          FAIR      38  25  59 N8        30.30R
BURLINGTON     FAIR      41  26  55 N14       30.29R
WRAY           NOT AVBL
YUMA           FAIR      37  27  65 N8        30.30R
STERLING       CLOUDY    39  30  70 N10       30.31R
HOLYOKE        FAIR      41  27  56 N18G30    30.30R
FORT MORGAN    FAIR      38  24  57 NE5       30.32R
$$

COZ086-089-092>099-211800-
...SOUTHEAST COLORADO...

CITY           SKY/WX    TMP DP  RH WIND       PRES   REMARKS
PUEBLO         CLOUDY    52  36  54 NE22      30.27R
LA JUNTA       CLOUDY    51  34  52 NE15      30.27R
LAMAR          FAIR      51  26  37 NE20G28   30.23R
SPRINGFIELD      N/A     51  33  50 N22G28    30.23R
$$




USA.gov is the U.S. government's official web portal to all federal, state and local government web resources and services.